Location: Rockford
(42.2710°N, 89.0940°W)
Time: 15:24:55
(UTC-05:00)

SPOT 5 - Visible Passes

Search period start: 23 September 2014 00:00
Search period end: 03 October 2014 00:00
Orbit: 824 x 826 km, 98.6° (Epoch: 23 September)

Date Brightness Start Highest point End Pass type
(mag) Time Alt. Az. Time Alt. Az. Time Alt. Az.
23 Sep 5.0 20:21:55 13° NE 20:21:55 13° NE 20:24:04 10° NNE visible
23 Sep 4.4 22:03:24 36° NNW 22:03:24 36° NNW 22:06:28 10° NNW visible
24 Sep 4.3 21:43:56 35° N 21:43:56 35° N 21:47:03 10° N visible
24 Sep 6.0 23:25:25 12° NW 23:25:25 12° NW 23:25:54 10° NW visible
25 Sep 4.4 21:24:29 30° NNE 21:24:29 30° NNE 21:27:32 10° N visible
25 Sep 5.7 23:05:57 16° NW 23:05:57 16° NW 23:07:17 10° NW visible
26 Sep 4.6 21:05:02 24° NE 21:05:02 24° NE 21:07:52 10° N visible
26 Sep 5.4 22:46:30 20° NW 22:46:30 20° NW 22:48:21 10° NNW visible
27 Sep 4.8 20:45:35 18° NE 20:45:35 18° NE 20:48:01 10° NNE visible
27 Sep 5.1 22:27:03 24° NNW 22:27:03 24° NNW 22:29:14 10° NNW visible
28 Sep 5.1 20:26:08 14° NE 20:26:08 14° NE 20:27:49 10° NNE visible
28 Sep 4.9 22:07:36 27° NNW 22:07:36 27° NNW 22:09:57 10° NNW visible
29 Sep 4.7 21:48:09 27° N 21:48:09 27° N 21:50:34 10° N visible
30 Sep 4.7 21:28:41 25° NNE 21:28:41 25° NNE 21:31:04 10° N visible
30 Sep 6.0 23:10:10 12° NW 23:10:10 12° NW 23:10:40 10° NW visible
01 Oct 4.8 21:09:14 21° NNE 21:09:14 21° NNE 21:11:25 10° N visible
01 Oct 5.7 22:50:42 15° NW 22:50:42 15° NW 22:51:46 10° NNW visible
02 Oct 5.0 20:49:47 17° NNE 20:49:47 17° NNE 20:51:37 10° NNE visible
02 Oct 5.5 22:31:15 18° NNW 22:31:15 18° NNW 22:32:40 10° NNW visible
